NOAA 1 [-] 1 04793U 70106A 21018.83862289 -.00000039 00000-0 32858-4 0 9998 2 04793 101.6299 89.0818 0031586 241.7664 228.4972 12.53997859293084 NOAA 2 (ITOS-D) [-] 1 06235U 72082A 21018.85697896 -.00000033 00000-0 78871-4 0 9997 2 06235 101.8847 354.3685 0004149 343.1438 81.6552 12.53131449207510 NOAA 3 [-] 1 06920U 73086A 21018.87856897 -.00000032 00000-0 10207-3 0 9990 2 06920 102.1384 355.3268 0006217 159.0521 255.0839 12.40341871136990 NOAA 4 [-] 1 07529U 74089A 21018.84054784 -.00000029 00000-0 10293-3 0 9993 2 07529 101.8425 353.5134 0009241 11.6770 50.3948 12.53147168112087 NOAA 5 [-] 1 09057U 76077A 21018.86735472 -.00000029 00000-0 11947-3 0 9999 2 09057 102.0213 349.0008 0010205 10.4434 43.5261 12.37757237 10073 TIROS N [-] 1 11060U 78096A 21019.14355550 .00000006 00000-0 24089-4 0 9992 2 11060 98.7112 79.4436 0010785 177.2925 182.8310 14.18293445398942 NOAA 6 [-] 1 11416U 79057A 21018.97282061 .00000028 00000-0 26285-4 0 9995 2 11416 98.6641 24.0043 0009978 342.3301 17.7535 14.33613656168013 NOAA 7 [-] 1 12553U 81059A 21018.79968628 -.00000030 00000-0 79474-5 0 9996 2 12553 99.0652 49.8680 0012217 134.7998 225.4172 14.17287880 45118 NOAA 8 [-] 1 13923U 83022A 21019.19004786 .00000002 00000-0 18312-4 0 9992 2 13923 98.6411 8.1068 0014096 275.1668 84.7905 14.28723349969232 NOAA 9 [-] 1 15427U 84123A 21018.88312936 -.00000001 00000-0 22632-4 0 9990 2 15427 98.9734 340.3487 0014703 181.6878 236.2524 14.16119320863788 NOAA 10 [-] 1 16969U 86073A 21018.85742674 .00000008 00000-0 20327-4 0 9996 2 16969 98.5206 10.9712 0012719 26.8510 34.2243 14.28121318787387 NOAA 11 [-] 1 19531U 88089A 21018.87870655 -.00000032 00000-0 44828-5 0 9997 2 19531 98.4057 32.0644 0010457 218.0362 142.0075 14.15266406668039 NOAA 12 [-] 1 21263U 91032A 21018.87706360 -.00000013 00000-0 12302-4 0 9995 2 21263 98.5051 28.5346 0014496 48.6333 311.6092 14.25930552543395 NOAA 13 [-] 1 22739U 93050A 21019.00040098 .00000009 00000-0 26689-4 0 9998 2 22739 98.4615 20.9368 0009930 24.0709 336.0927 14.12773176414658 NOAA 14 [-] 1 23455U 94089A 21018.82916084 -.00000037 00000-0 23282-5 0 9992 2 23455 98.5144 66.6088 0009524 9.6891 350.4465 14.14155311343978 NOAA 15 [B] 1 25338U 98030A 21019.12562209 .00000012 00000-0 23502-4 0 9990 2 25338 98.6985 48.8632 0010313 1.3426 358.7779 14.26009147179965 NOAA 16 [-] 1 26536U 00055A 21018.84857568 -.00000016 00000-0 14358-4 0 9998 2 26536 98.7084 88.5024 0010443 187.7609 172.3403 14.13268581344669 NOAA 17 [-] 1 27453U 02032A 21019.13479330 .00000004 00000-0 20340-4 0 9998 2 27453 98.6121 327.2582 0011234 334.0583 26.0032 14.25085614965612 NOAA 18 [B] 1 28654U 05018A 21019.13425826 .00000064 00000-0 59128-4 0 9992 2 28654 99.0160 83.2671 0013860 347.0552 13.0261 14.12574181807454 NOAA 19 [+] 1 33591U 09005A 21019.08370802 -.00000014 00000-0 17794-4 0 9994 2 33591 99.1928 36.0140 0013846 187.8343 172.2614 14.12448911615832 SUOMI NPP [+] 1 37849U 11061A 21019.09848081 .00000028 00000-0 33804-4 0 9993 2 37849 98.7243 319.8743 0001297 62.4314 67.0915 14.19548302478217 NOAA 20 [+] 1 43013U 17073A 21019.10861833 .00000030 00000-0 35111-4 0 9990 2 43013 98.7409 319.9154 0001377 86.8204 273.3130 14.19548414164256